Weather History for Socorro, NM

Change the Weather History Date:

Tuesday, July 9, 2013

  Actual Average Record
Temperature  
Mean Temperature 80 °F -  
Max Temperature 97 °F 93 °F 98 °F (2011)
Min Temperature 64 °F 60 °F 64 °F (2013)
Cooling Degree Days 16    
Growing Degree Days 30 (Base 50)    
Moisture  
Dew Point 56 °F    
Average Humidity 50    
Maximum Humidity 89    
Minimum Humidity 17    
Precipitation  
Precipitation 0.03 in - - ()
Sea Level Pressure  
Sea Level Pressure 30.19 in    
Wind  
Wind Speed 6 mph (North)    
Max Wind Speed 28 mph    
Max Gust Speed 36 mph    
Visibility 10 miles    
Events Rain , Thunderstorm    
Averages and records for this station are not official NWS values.
T = Trace of Precipitation, MM = Missing Value Source: NWS Daily Summary

Daily Weather History Graph

Daily Weather History Graph

Search for Another Location

Airport:

Trip Planner

Search our weather history database for the weather conditions in past years. The results will help you decide how hot, cold, wet, or windy it might be!

Date:

Astronomy

Jul. 09, 2013 Rise Set
Actual Time 6:04 AM MDT 8:21 PM MDT
Civil Twilight 5:35 AM MDT 8:50 PM MDT
Nautical Twilight 4:59 AM MDT 9:25 PM MDT
Astronomical Twilight 4:21 AM MDT 10:03 PM MDT
Moon 7:25 AM MDT (7/9) 9:08 PM MDT (7/9)
Length of Visible Light 15h 15m
Length of Day
14h 17m
New Moon, 2% of the Moon is Illuminated
Jul 9
New Moon
Jul 15
First Quarter
Jul 22
Full
Jul 29
Last Quarter
Aug 6
New

Hourly Weather History & Observations

Time (MDT) Temp. Heat Index Dew Point Humidity Pressure Visibility Wind Dir Wind Speed Gust Speed Precip Events Conditions
12:15 AM 70.7 °F - 60.8 °F 71% 30.26 in 10.0 mi North 9.2 mph - N/A   Clear
12:35 AM 70.9 °F - 60.6 °F 70% 30.25 in 10.0 mi NW 9.2 mph - N/A   Clear
12:55 AM 71.2 °F - 61.0 °F 70% 30.24 in 10.0 mi NE 4.6 mph - N/A   Clear
1:15 AM 70.3 °F - 60.6 °F 71% 30.24 in 10.0 mi NNE 8.1 mph - N/A   Clear
1:35 AM 70.7 °F - 59.5 °F 68% 30.24 in 10.0 mi NE 5.8 mph - N/A   Clear
1:55 AM 69.4 °F - 61.3 °F 75% 30.23 in 10.0 mi Calm Calm - N/A   Clear
2:15 AM 69.3 °F - 61.5 °F 76% 30.23 in 10.0 mi NNW 4.6 mph - N/A   Clear
2:35 AM 68.9 °F - 61.7 °F 78% 30.22 in 10.0 mi NW 4.6 mph - N/A   Clear
2:55 AM 68.9 °F - 61.7 °F 78% 30.21 in 10.0 mi NNW 6.9 mph - N/A   Clear
3:15 AM 68.5 °F - 61.7 °F 79% 30.20 in 10.0 mi NW 4.6 mph - N/A   Clear
3:35 AM 67.8 °F - 61.9 °F 81% 30.20 in 10.0 mi Calm Calm - N/A   Clear
3:55 AM 68.0 °F - 61.3 °F 79% 30.20 in 10.0 mi NW 3.5 mph - N/A   Clear
4:15 AM 67.5 °F - 61.7 °F 82% 30.20 in 10.0 mi WNW 3.5 mph - N/A   Clear
4:35 AM 66.7 °F - 61.5 °F 83% 30.20 in 10.0 mi WSW 4.6 mph - N/A   Clear
4:55 AM 66.7 °F - 61.5 °F 83% 30.20 in 10.0 mi WSW 4.6 mph - N/A   Clear
5:15 AM 66.4 °F - 61.3 °F 84% 30.20 in 10.0 mi WSW 4.6 mph - N/A   Clear
5:35 AM 66.6 °F - 61.0 °F 82% 30.21 in 10.0 mi WSW 4.6 mph - N/A   Clear
5:55 AM 65.3 °F - 61.3 °F 87% 30.22 in 10.0 mi Calm Calm - N/A   Clear
6:15 AM 64.6 °F - 61.2 °F 89% 30.22 in 10.0 mi South 3.5 mph - N/A   Clear
6:35 AM 65.7 °F - 61.9 °F 88% 30.23 in 10.0 mi Calm Calm - N/A   Clear
6:55 AM 65.8 °F - 62.1 °F 88% 30.24 in 10.0 mi North 4.6 mph - N/A   Clear
7:15 AM 66.2 °F - 62.2 °F 87% 30.25 in 10.0 mi North 3.5 mph - N/A   Clear
7:35 AM 67.3 °F - 62.8 °F 85% 30.25 in 10.0 mi Calm Calm - N/A   Clear
7:55 AM 68.4 °F - 62.8 °F 82% 30.27 in 10.0 mi NNW 3.5 mph - N/A   Clear
8:15 AM 70.3 °F - 62.2 °F 75% 30.27 in 10.0 mi North 4.6 mph - N/A   Clear
8:35 AM 72.3 °F - 62.8 °F 72% 30.27 in 10.0 mi North 4.6 mph - N/A   Clear
8:55 AM 73.2 °F - 62.2 °F 68% 30.28 in 10.0 mi NNW 4.6 mph - N/A   Clear
9:15 AM 75.0 °F - 61.7 °F 63% 30.27 in 10.0 mi North 4.6 mph - N/A   Clear
9:35 AM 76.6 °F - 59.4 °F 55% 30.27 in 10.0 mi North 4.6 mph - N/A   Clear
9:55 AM 77.7 °F - 59.4 °F 53% 30.26 in 10.0 mi North 3.5 mph - N/A   Clear
10:15 AM 79.5 °F - 59.0 °F 49% 30.26 in 10.0 mi North 3.5 mph - N/A   Clear
10:35 AM 80.6 °F 80.8 °F 57.6 °F 45% 30.26 in 10.0 mi ENE 3.5 mph - N/A   Clear
10:55 AM 81.3 °F 80.9 °F 55.0 °F 40% 30.26 in 10.0 mi North 3.5 mph - N/A   Clear
11:15 AM 83.5 °F 82.4 °F 54.9 °F 37% 30.25 in 10.0 mi NNE 4.6 mph - N/A   Clear
11:35 AM 84.2 °F 82.8 °F 54.0 °F 35% 30.24 in 10.0 mi NNE 3.5 mph - N/A   Clear
11:55 AM 84.9 °F - 52.9 °F 33% 30.24 in 10.0 mi NNW 5.8 mph - N/A   Clear
12:15 PM 87.8 °F - 52.9 °F 30% 30.23 in 10.0 mi NE 4.6 mph - N/A   Clear
12:35 PM 88.2 °F - 52.5 °F 29% 30.22 in 10.0 mi ENE 4.6 mph - N/A   Clear
12:55 PM 88.5 °F - 52.9 °F 29% 30.21 in 10.0 mi ENE 5.8 mph - N/A   Clear
1:15 PM 90.7 °F - 52.2 °F 27% 30.21 in 10.0 mi NE 6.9 mph - N/A   Clear
1:35 PM 91.6 °F - 51.4 °F 25% 30.19 in 10.0 mi NE 6.9 mph - N/A   Clear
1:55 PM 93.2 °F - 49.3 °F 22% 30.19 in 10.0 mi NNW 4.6 mph - N/A   Clear
2:15 PM 92.8 °F - 48.0 °F 21% 30.18 in 10.0 mi ENE 6.9 mph - N/A   Clear
2:35 PM 94.6 °F - 45.0 °F 18% 30.17 in 10.0 mi North 4.6 mph - N/A   Clear
2:55 PM 95.0 °F - 46.6 °F 19% 30.17 in 10.0 mi North 8.1 mph - N/A   Clear
3:15 PM 95.4 °F - 47.7 °F 20% 30.15 in 10.0 mi North 5.8 mph - N/A   Clear
3:35 PM 96.3 °F - 45.1 °F 17% 30.14 in 10.0 mi North 6.9 mph - N/A   Clear
3:55 PM 95.9 °F - 46.6 °F 18% 30.13 in 10.0 mi NNW 3.5 mph - N/A   Clear
4:15 PM 95.9 °F - 46.4 °F 18% 30.12 in 10.0 mi NNE 5.8 mph - N/A   Clear
4:35 PM 96.1 °F - 45.1 °F 17% 30.11 in 10.0 mi NNW 3.5 mph - N/A   Clear
4:55 PM 95.5 °F - 45.1 °F 18% 30.10 in 10.0 mi Calm Calm - N/A   Clear
5:15 PM 97.5 °F - 45.7 °F 17% 30.08 in 10.0 mi NNW 5.8 mph - N/A   Clear
5:35 PM 96.8 °F - 45.5 °F 17% 30.08 in 10.0 mi NNE 5.8 mph - N/A   Clear
5:55 PM 96.3 °F - 45.3 °F 17% 30.07 in 10.0 mi NNW 4.6 mph - N/A   Clear
6:15 PM 97.2 °F - 45.3 °F 17% 30.07 in 10.0 mi NNW 4.6 mph - N/A   Clear
6:35 PM 96.1 °F - 45.5 °F 18% 30.06 in 10.0 mi ENE 3.5 mph - N/A   Clear
6:55 PM 96.3 °F - 45.3 °F 17% 30.06 in 10.0 mi Calm Calm - N/A   Clear
7:15 PM 95.0 °F - 45.7 °F 18% 30.06 in 10.0 mi Calm Calm - N/A   Clear
7:35 PM 94.8 °F - 45.1 °F 18% 30.06 in 10.0 mi NW 4.6 mph - N/A Thunderstorm Clear
7:55 PM 95.0 °F - 44.1 °F 17% 30.06 in 10.0 mi NNW 3.5 mph - N/A   Clear
8:15 PM 88.0 °F - 50.5 °F 28% 30.10 in 10.0 mi East 27.6 mph 35.7 mph N/A   Mostly Cloudy
8:35 PM 81.7 °F 81.4 °F 56.7 °F 42% 30.12 in 10.0 mi ESE 21.9 mph 28.8 mph N/A Thunderstorm Mostly Cloudy
8:55 PM 77.2 °F - 59.4 °F 54% 30.13 in 10.0 mi South 9.2 mph 21.9 mph N/A Rain , Thunderstorm Light Thunderstorms and Rain
9:15 PM 76.6 °F - 58.8 °F 54% 30.13 in 10.0 mi South 5.8 mph - N/A Rain , Thunderstorm Light Thunderstorms and Rain
9:35 PM 79.9 °F - 56.8 °F 45% 30.16 in 10.0 mi South 5.8 mph - 0.01 in Rain , Thunderstorm Heavy Thunderstorms and Rain
9:55 PM 76.1 °F - 61.0 °F 59% 30.18 in 10.0 mi North 9.2 mph - 0.03 in Rain , Thunderstorm Thunderstorms and Rain
10:15 PM 76.1 °F - 59.9 °F 57% 30.16 in 10.0 mi WSW 10.4 mph - N/A Rain Light Rain
10:35 PM 79.2 °F - 56.7 °F 46% 30.15 in 10.0 mi West 4.6 mph - N/A   Mostly Cloudy
10:55 PM 80.2 °F 80.4 °F 55.8 °F 43% 30.15 in 10.0 mi West 9.2 mph - N/A Thunderstorm Scattered Clouds
11:15 PM 77.5 °F - 59.5 °F 54% 30.16 in 10.0 mi ENE 4.6 mph - N/A   Scattered Clouds
11:35 PM 76.8 °F - 60.8 °F 58% 30.17 in 10.0 mi South 13.8 mph - N/A   Scattered Clouds
11:55 PM 77.7 °F - 57.4 °F 49% 30.16 in 10.0 mi SSW 8.1 mph - N/A   Clear